www.pogodaiklimat.ru

Погода и климат >> Архив погоды >> Австралия >> Западная Австралия >> Лавертон


ПОГОДА в Лавертоне

  • Прогноз погоды в Лавертоне
  • Монитор погоды в Лавертоне

АРХИВ ПОГОДЫ в Лавертоне

Время (UTC), дата Ветер
(напр.,м/с)
 
Видим.   Явления Облачность Т
(С)
Тd
(С)
f
(%)
Тe
(С)
Тes
(С)
Комфортность P
(гПа)
Po
(гПа)
Тmin
(С)
Tmax
(С)
R
(мм)
R24
(мм)
S
(см)
01 17.02 ЮВ 7 н/о н/о +22.8 +9.6 43 +24 +24 комфорт 1013.2 961.6 +19.9
03 17.02 ЮВ 6 н/о н/о +27.2 +10.4 35 +28 +28 жарко 1011.8 960.2
04 17.02 ЮВ 6 н/о н/о +28.4 +10.1 32 +29 +29 жарко 1010.9 959.4
06 17.02 ЮВ 6 н/о н/о +31.7 +11.0 28 +32 +32 жарко 1009.5 958.1
07 17.02 ЮВ 6 н/о н/о +31.9 +10.6 27 +32 +32 жарко 1008.7 957.3
09 17.02 ЮВ 8 н/о н/о +31.6 +10.9 28 +32 +32 жарко 1008.4 957.0
10 17.02 ЮВ 6 н/о н/о +30.8 +10.2 28 +31 +31 жарко 1008.7 957.3
12 17.02 В 7 н/о н/о +28.4 +11.5 35 +29 +29 жарко 1010.7 959.2
13 17.02 В 9 н/о н/о +27.0 +11.5 38 +28 +28 жарко 1011.0 959.5 +36.3
15 17.02 В 8 н/о н/о +24.8 +11.4 43 +26 +26 жарко 1011.0 959.5
16 17.02 ЮВ 8 н/о н/о +23.5 +11.2 46 +25 +25 комфорт 1010.8 959.3
18 17.02 ЮВ 6 н/о н/о +21.0 +10.5 51 +23 +23 комфорт 1010.9 959.4
19 17.02 В 7 н/о н/о +19.9 +9.8 52 +21 +21 комфорт 1011.3 959.8
21 17.02 В 7 н/о н/о +17.8 +9.4 58 +17 +17 1012.2 960.6
22 17.02 В 6 н/о н/о +17.3 +9.7 61 +17 +17 1012.8 961.2
00 18.02 В 7 н/о н/о +19.6 +10.3 55 +20 +20 1014.2 962.5
01 18.02 В 7 н/о н/о +21.1 +9.4 47 +22 +22 комфорт 1013.7 962.0 +17.2
03 18.02 В 5 н/о н/о +26.0 +8.5 33 +26 +26 жарко 1012.6 961.0
04 18.02 ЮВ 5 н/о н/о +28.5 +8.7 29 +28 +28 жарко 1011.9 960.3
06 18.02 ЮВ 5 н/о н/о +32.1 +8.4 23 +31 +31 жарко 1010.4 958.9
07 18.02 ЮВ 6 н/о н/о +32.8 +7.6 21 +31 +31 жарко 1009.9 958.4
09 18.02 ЮВ 6 н/о н/о +32.7 +6.1 19 +31 +31 жарко 1009.7 958.2
10 18.02 В 6 н/о н/о +32.2 +6.4 20 +30 +30 жарко 1009.9 958.4
12 18.02 В 6 н/о н/о +29.2 +6.6 24 +28 +28 жарко 1011.8 960.2
13 18.02 В 6 н/о н/о +28.1 +6.8 26 +27 +27 жарко 1012.6 961.0 +34.0
15 18.02 В 6 н/о н/о +25.8 +6.4 29 +25 +25 комфорт 1012.8 961.2
16 18.02 В 7 н/о н/о +25.0 +6.2 30 +25 +25 комфорт 1012.2 960.6
18 18.02 В 7 н/о н/о +23.2 +6.1 33 +24 +24 комфорт 1011.2 959.7
19 18.02 В 8 н/о н/о +22.7 +6.0 34 +23 +23 комфорт 1011.0 959.5
21 18.02 В 8 н/о н/о +20.9 +6.4 39 +21 +21 комфорт 1011.3 959.8
22 18.02 В 7 н/о н/о +20.4 +6.7 41 +21 +21 комфорт 1012.0 960.4
00 19.02 СВ 7 н/о н/о +24.0 +8.0 36 +24 +24 комфорт 1013.3 961.7
01 19.02 СВ 7 н/о н/о +27.0 +8.4 31 +27 +27 жарко 1013.7 962.0 +19.2
03 19.02 В 5 н/о н/о +31.5 +8.5 24 +30 +30 жарко 1012.7 961.1
04 19.02 В 6 н/о н/о +33.6 +7.6 20 +32 +32 жарко 1011.8 960.2
06 19.02 В 6 н/о н/о +34.7 +6.9 18 +33 +33 жарко 1010.5 959.0
07 19.02 СВ 4 н/о н/о +36.2 +7.3 17 +34 +34 очень
жарко
1009.8 958.3
09 19.02 В 7 н/о н/о +35.9 +7.0 17 +34 +34 очень
жарко
1009.3 957.9
10 19.02 В 7 н/о н/о +34.6 +6.8 18 +33 +33 жарко 1009.4 958.0
12 19.02 В 9 н/о н/о +31.6 +8.6 24 +31 +31 жарко 1010.4 958.9
13 19.02 В 8 н/о н/о +30.4 +8.2 25 +30 +30 жарко 1011.6 960.0 +37.1
15 19.02 В 8 н/о н/о +28.9 +7.5 26 +28 +28 жарко 1012.5 960.9
16 19.02 В 7 н/о н/о +28.0 +6.7 26 +27 +27 жарко 1012.3 960.7
18 19.02 В 6 н/о н/о +26.1 +5.7 27 +25 +25 комфорт 1011.8 960.2
19 19.02 В 7 н/о н/о +25.3 +5.0 27 +25 +25 комфорт 1011.1 959.6
21 19.02 В 8 н/о н/о +24.2 +2.4 24 +23 +23 комфорт 1011.3 959.8
22 19.02 В 9 н/о н/о +24.0 +1.6 23 +23 +23 комфорт 1012.2 960.6
00 20.02 В 10 н/о н/о +27.8 +2.8 20 +26 +26 жарко 1012.6 961.0
01 20.02 В 9 н/о н/о +30.4 +3.4 18 +28 +28 жарко 1012.9 961.3 +23.9
03 20.02 СВ 9 н/о н/о +34.4 +4.0 15 +32 +32 жарко 1012.1 960.5
04 20.02 СВ 8 н/о н/о +36.1 +4.4 14 +33 +33 жарко 1011.0 959.5
06 20.02 С 6 н/о н/о +39.5 +4.8 12 +37 +37 очень
жарко
1008.5 957.1
07 20.02 СВ 5 н/о н/о +39.8 +5.1 12 +37 +37 очень
жарко
1007.0 955.7
09 20.02 Ю 6 н/о н/о +36.2 +8.1 18 +34 +34 очень
жарко
1006.5 955.2
10 20.02 В 7 н/о н/о +34.3 +10.8 24 +34 +34 очень
жарко
1006.9 955.6
12 20.02 В 11 н/о н/о +29.7 +11.2 32 +30 +30 жарко 1008.9 957.5
13 20.02 В 11 н/о н/о +28.8 +10.5 32 +29 +29 жарко 1009.9 958.4 +41.3
15 20.02 В 7 н/о н/о +27.3 +9.6 33 +28 +28 жарко 1011.3 959.8
16 20.02 СВ 8 н/о н/о +27.5 +8.4 30 +27 +27 жарко 1011.2 959.7
18 20.02 СВ 6 н/о н/о +26.8 +7.3 29 +26 +26 жарко 1010.2 958.7
19 20.02 СВ 8 н/о н/о +26.6 +7.6 30 +26 +26 жарко 1009.9 958.4
21 20.02 СВ 8 н/о н/о +26.1 +7.7 31 +26 +26 жарко 1009.7 958.2
22 20.02 СВ 8 н/о н/о +26.3 +7.4 30 +26 +26 жарко 1010.2 958.7
00 21.02 С 7 н/о н/о +32.1 +9.6 25 +31 +31 жарко 1011.0 959.5
01 21.02 С 7 н/о н/о +34.7 +9.9 22 +34 +34 очень
жарко
1011.0 959.5 +26.1
03 21.02 С 6 н/о н/о +38.5 +10.0 18 +37 +37 очень
жарко
1010.0 958.5
04 21.02 СЗ 7 н/о н/о +39.6 +9.1 16 +38 +38 очень
жарко
1009.2 957.8
06 21.02 СЗ 5 н/о н/о +41.2 +3.5 10 +38 +38 очень
жарко
1007.7 956.3
07 21.02 З 10 н/о н/о +41.1 +2.0 9 +38 +38 очень
жарко
1006.5 955.2
09 21.02 З 5 н/о н/о +40.2 +1.3 9 +37 +37 очень
жарко
1006.3 955.0
10 21.02 З 4 н/о н/о +39.5 +0.8 9 +36 +36 очень
жарко
1006.7 955.4
12 21.02 С 6 н/о н/о +35.7 +6.0 16 +33 +33 жарко 1008.9 957.5
13 21.02 С 7 н/о н/о +33.0 +9.7 24 +32 +32 жарко 1009.9 958.4 +42.3
15 21.02 С 5 н/о н/о +30.1 +10.6 30 +30 +30 жарко 1009.9 958.4
16 21.02 С 3 н/о н/о +28.5 +10.2 32 +29 +29 жарко 1010.2 958.7
18 21.02 С 3 н/о н/о +27.3 +10.9 36 +28 +28 жарко 1010.4 958.9
19 21.02 С 3 н/о н/о +25.6 +10.6 39 +27 +27 жарко 1010.4 958.9
21 21.02 С 3 н/о н/о +23.8 +10.5 43 +25 +25 комфорт 1010.9 959.4
22 21.02 С 3 н/о н/о +23.3 +10.4 44 +25 +25 комфорт 1011.3 959.8
00 22.02 СЗ 4 н/о н/о +30.9 +12.3 32 +32 +32 жарко 1012.0 960.4
01 22.02 СЗ 5 н/о н/о +33.0 +11.5 27 +33 +33 жарко 1011.9 960.3 +23.2
03 22.02 СЗ 5 н/о н/о +37.1 +11.1 21 +36 +36 очень
жарко
1011.7 960.1
04 22.02 С 7 н/о н/о +39.7 +10.1 17 +38 +38 очень
жарко
1010.6 959.1
06 22.02 З 7 н/о н/о +40.5 +4.3 11 +37 +37 очень
жарко
1008.9 957.5
07 22.02 СЗ 7 н/о н/о +42.1 +4.2 10 +39 +39 очень
жарко
1008.2 956.8
09 22.02 СЗ 3 н/о н/о +41.1 +2.0 9 +38 +38 очень
жарко
1007.9 956.5
10 22.02 З 5 н/о н/о +40.1 +1.2 9 +36 +36 очень
жарко
1008.1 956.7
12 22.02 ЮВ 2 н/о н/о +35.6 -0.7 10 +32 +32 жарко 1009.8 958.3
13 22.02 СВ 5 н/о н/о +35.5 +5.8 16 +33 +33 жарко 1010.7 959.2 +42.9
15 22.02 ЮВ 2 н/о н/о +30.2 +6.1 22 +29 +29 жарко 1010.4 958.9
16 22.02 штиль 0 н/о н/о +28.5 +6.0 24 +27 +27 жарко 1009.8 958.3
18 22.02 Ю 3 н/о н/о +26.9 +6.3 27 +26 +26 жарко 1009.2 957.8
19 22.02 ЮЗ 1 н/о н/о +23.9 +4.3 28 +24 +24 комфорт 1009.5 958.1
21 22.02 ЮЗ 3 н/о н/о +25.3 +3.3 24 +24 +24 комфорт 1010.2 958.7
22 22.02 СВ 1 н/о н/о +24.7 +4.5 27 +24 +24 комфорт 1010.9 959.4
00 23.02 СВ 2 н/о н/о +32.8 +4.6 17 +30 +30 жарко 1011.8 960.2
01 23.02 С 8 н/о н/о +37.4 +3.2 12 +34 +34 очень
жарко
1011.9 960.3 +23.5
03 23.02 С 7 н/о н/о +40.5 +1.5 9 +37 +37 очень
жарко
1011.0 959.5
04 23.02 С 5 н/о н/о +41.6 +0.7 8 +38 +38 очень
жарко
1010.3 958.8
06 23.02 В 4 н/о н/о +42.1 +1.1 8 +38 +38 очень
жарко
1008.9 957.5
07 23.02 СВ 3 н/о н/о +42.1 -0.8 7 +38 +38 очень
жарко
1008.3 956.9
09 23.02 С 3 н/о н/о +41.6 -1.1 7 +38 +38 очень
жарко
1007.8 956.4
10 23.02 штиль 0 н/о н/о +41.0 +0.3 8 +37 +37 очень
жарко
1007.8 956.4
12 23.02 В 3 н/о н/о +36.2 -0.2 10 +32 +32 жарко 1008.9 957.5
13 23.02 ЮЗ 3 н/о н/о +37.1 +3.0 12 +34 +34 очень
жарко
1009.4 958.0 +43.7
15 23.02 ЮВ 5 н/о н/о +36.3 +4.6 14 +33 +33 жарко 1010.0 958.5
16 23.02 В 3 н/о н/о +34.9 +2.4 13 +32 +32 жарко 1009.8 958.3
18 23.02 В 3 н/о н/о +32.4 +0.5 13 +29 +29 жарко 1009.4 958.0
19 23.02 В 4 н/о н/о +32.9 -0.2 12 +30 +30 жарко 1009.9 958.4
21 23.02 СВ 3 н/о н/о +28.4 +1.0 17 +26 +26 жарко 1010.8 959.3
22 23.02 С 4 н/о н/о +30.5 +1.0 15 +28 +28 жарко 1011.3 959.8
01 24.02 С 6 н/о н/о +35.9 -0.5 10 +32 +32 жарко 1012.3 960.7 +28.3

 

Местоположение метеостанции Лавертон (Западная Австралия, Австралия): широта -28.61 долгота 122.41 высота над уровнем моря 465 м.

В архиве по умолчанию представлена погода в Лавертоне за последнюю неделю. Архивные данные за месяц целиком и за предыдущие месяцы, начиная с января 2011 года, Вы можете получить, выбрав интересующий диапазон дат из раскрывающегося списка и нажав кнопку "Ввод!".


*Определитесь, кто Вы:
робот инопланетянин человек

Внимание! Время в таблицах - всемирное. Для получения местного времени необходимо прибавить поправку, которая равна 8 ч.

Смотрите также архив погоды в соседних городах и на ближайших метеорологических станциях:

Погода в Леоноре (Западная Австралия, Австралия) (110 км)
Погода в Леинстере (Западная Австралия, Австралия) (188 км)
Погода в Калгурли-Боулдере (Западная Австралия, Австралия) (259 км)
Погода в Норсмане (Западная Австралия, Австралия) (406 км)
Погода в Саутерн Кросс (Западная Австралия, Австралия) (415 км)
Погода в Микатарре (Западная Австралия, Австралия) (441 км)
Погода в Маунт Магнет (Западная Австралия, Австралия) (452 км)
Погода в Салмон Гамс (Западная Австралия, Австралия) (492 км)
Погода в Уорбертоне (Западная Австралия, Австралия) (496 км)
Погода в Эсперансе (Западная Австралия, Австралия) (567 км)

Пояснения к столбцам:

Ветер - указаны скорость ветра в м/с - средняя за 10 мин, порывы в срок и между сроками (в фигурных скобках) и направление, откуда дует ветер: С - северный, СВ - северо-восточный, В - восточный, ЮВ - юго-восточный, Ю - южный, ЮЗ - юго-западный, З - западный, СЗ - северо-западный.
Видимость - горизонтальная дальность видимости в метрах или километрах. При видимости от 1 до 10 км при отсутствии осадков обычно наблюдается дымка, при ухудшении видимости до 1 км и менее - туман. В сухую погоду видимость может ухудшаться дымом, пылью или мглою.
Явления - указаны атмосферные явления, наблюдавшиеся в срок или в последний час перед сроком; фигурными скобками обозначены явления, наблюдавшиеся между сроками (за 1-3 часа до срока); квадратными скобками обозначены град или гололедные отложения с указанием их диаметра в мм.
Облачность - указаны через наклонную черту общая и нижняя облачность в баллах и высота нижней границы облаков в метрах; квадратными скобками обозначены формы облаков: Ci - перистые, Cs - перисто-слоистые, Cc - перисто-кучевые, Ac - высококучевые, As - высокослоистые, Sc - слоисто-кучевые, Ns - слоисто-дождевые, Cu - кучевые, Cb - кучево-дождевые. Подробнее классификацию облаков см. в Атласе облаков (PDF).
T - Температура воздуха - температура, измеренная на высоте 2 м над землей.
Td - Температура точки росы - температура, при понижении до которой содержащийся в воздухе водяной пар достигнет насыщения.
f - Относительная влажность воздуха - влажноcть воздуха, измеренная на высоте 2 м над землей.
Te - Эффективная температура - температура, которую ощущает одетый по сезону человек в тени. Характеристика душности погоды. При расчете учитывается влияние влажности воздуха и скорости ветра на теплоощущения человека.
Tes - Эффективная температура на солнце - температура, которую ощущает человек, с поправкой на солнечный нагрев. Характеристика знойности погоды. Зависит от высоты солнца над горизонтом, облачности и скорости ветра. Ночью, в пасмурную погоду, а также при ветре 12 м/с и более поправка равна нулю.
P - Атмосферное давление - приведенное к уровню моря атмосферное давление.
Po - Атмосферное давление - измеренное на уровне метеостанции атмосферное давление.
Tmin - Минимальная температура - минимум температуры воздуха на высоте 2 м над землей.
Tmax - Максимальная температура - максимум температуры воздуха на высоте 2 м над землей.
R - Количество осадков - Количество выпавших осадков за период времени, мм. При наведении курсора мыши на число - период времени, за который выпало указанное количество осадков.
R24 - Количество осадков - Количество выпавших осадков за 24 часа, мм.
S - Снежный покров - Высота снежного покрова, см. При наведении курсора мыши на число - состояние снежного покрова и степень покрытия местности в баллах.